Location: B�rgermoos
(47.6500°N, 9.0667°E)
Time: 18:34:36
(UTC+00:00)

Courier 1B - All Passes

Search period start: 27 July 2021 00:00
Search period end: 06 August 2021 00:00
Orbit: 962 x 1209 km, 28.3° (Epoch: 26 July)

Date Brightness Start Highest point End Pass type
(mag) Time Alt. Az. Time Alt. Az. Time Alt. Az.
27 Jul - 00:09:01 10° SW 00:11:23 12° SSW 00:13:40 10° S night (unlit)
27 Jul - 21:21:12 10° SSW 21:25:10 15° S 21:29:02 10° SE visible
27 Jul - 23:14:36 10° SW 23:17:56 14° S 23:21:11 10° SSE visible
28 Jul - 20:27:50 10° SSW 20:31:39 15° S 20:35:22 10° SE visible
28 Jul - 22:20:32 10° SW 22:24:26 15° S 22:28:15 10° SSE visible
29 Jul - 19:34:43 10° SSW 19:38:06 13° SSE 19:41:26 10° SE visible
29 Jul - 21:26:39 10° SW 21:30:55 16° S 21:35:05 10° SSE visible
29 Jul - 23:21:42 10° SSW 23:23:38 11° SSW 23:25:31 10° S visible
30 Jul - 18:42:02 10° S 18:44:34 12° SSE 18:47:04 10° SE daylight
30 Jul - 20:32:57 10° SW 20:37:23 16° S 20:41:42 10° SE visible
30 Jul - 22:26:53 10° SW 22:30:10 13° SSW 22:33:22 10° SSE visible
31 Jul - 19:39:26 10° SSW 19:43:49 16° S 19:48:06 10° SE visible
31 Jul - 21:32:38 10° SW 21:36:40 15° S 21:40:34 10° SSE visible
01 Aug - 18:46:08 10° SSW 18:50:15 15° S 18:54:19 10° SE daylight
01 Aug - 20:38:39 10° SW 20:43:07 16° S 20:47:29 10° SSE visible
01 Aug - 22:35:00 10° SSW 22:35:49 10° SSW 22:36:39 10° SSW visible
02 Aug - 17:53:07 10° SSW 17:56:40 14° SSE 18:00:13 10° SE daylight
02 Aug - 19:44:52 10° SW 19:49:33 17° S 19:54:08 10° SE visible
02 Aug - 21:39:20 10° SW 21:42:20 13° SSW 21:45:18 10° S visible
03 Aug - 17:00:37 10° S 17:03:08 12° SSE 17:05:37 10° SE daylight
03 Aug - 18:51:15 10° SW 18:55:57 17° S 19:00:36 10° SE daylight
03 Aug - 20:44:53 10° SW 20:48:49 15° SSW 20:52:42 10° SSE visible
04 Aug - 17:57:50 10° SSW 18:02:22 16° S 18:06:52 10° SE daylight
04 Aug - 19:50:47 10° SW 19:55:15 16° S 19:59:40 10° SSE visible
05 Aug - 17:04:40 10° SSW 17:08:47 15° SSE 17:12:53 10° SE daylight
05 Aug - 18:56:56 10° SW 19:01:41 17° S 19:06:23 10° SE daylight
05 Aug - 20:52:07 10° SW 20:54:28 12° SSW 20:56:49 10° S visible
